We konden geen weer-waarchuwingen ophalen. Ga rechtstreeks naar de Meteoalarm site : www.meteoalarm.eu en controleer daar .



Onweer radar Meer informatie blitzortung!


Regen radar Meer informatie rain snow radar


Bezoek onze andere website:

Template documentation
and downloads

And another site



15 daagse weersverwachting Zug (CH)

  • Overzicht
  • Per uur
  • 15 dagen
  • Extra
  • Vergelijk
  • Kaarten
  • Dagkaart
  • Meer »
  • Info
  • Statistieken
  • Directe link
    Temp 6h Neerslag Wind  
 06:28     20:32    Daglengte: 14:04 Morgen
02:00
19°
 
2
08:00
18°
 
1
14:00
21°
 
2
20:00
20°
23.9 mm
1
warningclass
 06:30     20:30    Daglengte: 14:00 Vrijdag 19 Aug
02:00
18°
33.3 mm
1
08:00
18°
44.8 mm
2
warningclass
14:00
19°
89.1 mm
2
20:00
19°
123.4 mm
2
 06:31     20:28    Daglengte: 13:57 Zaterdag 20 Aug
02:00
17°
177.3 mm
2
08:00
18°
169.8 mm
1
14:00
22°
33.5 mm
1
20:00
19°
174.6 mm
1
warningclass
Locatie info
Region: Zug
Latitude: 47.1715°N
Longitude: 8.5162°E
424 masl
Postcode: 6300
Temp/Neerslag /Baro Onweer/Dauwpunt
    Temp Baro 1h Neerslag Dauwpunt Wind UV Bewolking  
 06:28     20:32    Daglengte: 14:04 Morgen
00:00
20°
1012.9 hPa
48%
14.8°
2
Windvlaag: -0 m/s
50%
01:00
20°
1012.5 hPa
14%
14.8°
2
Windvlaag: 0.4 m/s
35%
02:00
19°
1012.5 hPa
16%
14.9°
2
Windvlaag: -0.4 m/s
31%
03:00
19°
1012.3 hPa
22%
14.0°
1
Windvlaag: -0.5 m/s
41%
04:00
19°
1012.1 hPa
22%
14.0°
1
Windvlaag: 0.8 m/s
69%
05:00
18°
1011.6 hPa
18%
14.7°
1
Windvlaag: 0.8 m/s
61%
06:00
18°
1011.5 hPa
17%
15.9°
1
Windvlaag: -0.9 m/s
86%
07:00
18°
1011.5 hPa
20%
16.5°
1
Windvlaag: -1 m/s
65%
08:00
18°
1011.8 hPa
20%
17.1°
1
Windvlaag: -0.3 m/s
86%
09:00
18°
1012.0 hPa
67%
17.7°
1
Windvlaag: -1.5 m/s
86%
10:00
18°
1012.0 hPa
80%
17.6°
1
Windvlaag: -1.4 m/s
86%
11:00
19°
1012.3 hPa
76%
18.3°
1
Windvlaag: -0.4 m/s
86%
12:00
20°
1012.1 hPa
33%
18.8°
2
Windvlaag: 0.6 m/s
86%
13:00
21°
1011.9 hPa
29%
19.3°
2
Windvlaag: 2.7 m/s
85%
14:00
21°
1011.8 hPa
76%
19.4°
2
Windvlaag: 2.2 m/s
84%
15:00
21°
1011.7 hPa
82%
18.5°
2
Windvlaag: 2 m/s
85%
16:00
21°
1011.4 hPa
82%
18.8°
1
Windvlaag: 0 m/s
86%
17:00
21°
1011.2 hPa 5.5 mm
82%
18.9°
2
Windvlaag: -0.2 m/s
74%
18:00
22°
1011.1 hPa 5.7 mm
82%
18.6°
2
Windvlaag: -1.2 m/s
81%
19:00
21°
1011.3 hPa 6.3 mm
82%
18.4°
1
Windvlaag: -2.5 m/s
63% warningclass
20:00
20°
1011.7 hPa 6.3 mm
82%
18.0°
1
Windvlaag: 1.7 m/s
86% warningclass
21:00
19°
1012.1 hPa 6.2 mm
82%
17.7°
1
Windvlaag: 2.2 m/s
84% warningclass
22:00
19°
1012.2 hPa
82%
17.5°
1
Windvlaag: 2.9 m/s
65% warningclass
23:00
19°
1012.5 hPa 6.8 mm
82%
17.5°
1
Windvlaag: 2.1 m/s
86%
 06:30     20:30    Daglengte: 14:00 Vrijdag 19 Aug
00:00
19°
1012.8 hPa 6.8 mm
82%
17.5°
1
Windvlaag: 1.5 m/s
86%
01:00
18°
1013.0 hPa 6.8 mm
82%
17.6°
2
Windvlaag: 2.2 m/s
84%
02:00
18°
1012.8 hPa 6.7 mm
82%
17.8°
1
Windvlaag: 2.3 m/s
86%
03:00
18°
1012.6 hPa 6.9 mm
82%
17.7°
1
Windvlaag: 2.7 m/s
86%
04:00
18°
1012.7 hPa 6.9 mm
82%
17.7°
1
Windvlaag: 2.6 m/s
86%
05:00
18°
1012.6 hPa 7.2 mm
82%
17.6°
1
Windvlaag: 2.3 m/s
86% warningclass
06:00
18°
1012.8 hPa 7.7 mm
82%
17.4°
2
Windvlaag: 2.8 m/s
86% warningclass
07:00
18°
1013.3 hPa 7.6 mm
82%
17.2°
2
Windvlaag: 3.2 m/s
86%
08:00
18°
1013.6 hPa 8.5 mm
82%
17.0°
2
Windvlaag: 2.2 m/s
86% warningclass
09:00
18°
1014.0 hPa 9.4 mm
82%
17.1°
2
Windvlaag: 1.4 m/s
86% warningclass
10:00
18°
1014.4 hPa 11.9 mm
82%
17.1°
2
Windvlaag: 2 m/s
86% warningclass
11:00
18°
1014.8 hPa 14.5 mm
82%
17.2°
2
Windvlaag: 1.7 m/s
86% warningclass
12:00
18°
1015.0 hPa 16.1 mm
82%
17.3°
2
Windvlaag: 1.5 m/s
86%
13:00
18°
1015.2 hPa 18.5 mm
82%
17.2°
2
Windvlaag: 1.5 m/s
86%
14:00
19°
1015.2 hPa 18.8 mm
82%
17.2°
2
Windvlaag: 3.7 m/s
86%
15:00
19°
1015.3 hPa 19.6 mm
82%
17.3°
3
Windvlaag: 4.6 m/s
82%
16:00
20°
1015.4 hPa 20.1 mm
82%
18.2°
3
Windvlaag: 2.7 m/s
75%
17:00
19°
1015.7 hPa 20.8 mm
100%
18.4°
2
Windvlaag: 1.8 m/s
100% warningclass
18:00
19°
1015.8 hPa 21.3 mm
100%
18.0°
3
Windvlaag: 1.9 m/s
99%
19:00
19°
1016.2 hPa 20.9 mm
100%
17.2°
3
Windvlaag: 1.3 m/s
88%
20:00
19°
1016.7 hPa 20.8 mm
100%
17.0°
2
Windvlaag: 1.7 m/s
85%
21:00
18°
1017.6 hPa 20.9 mm
100%
15.6°
2
Windvlaag: 1.8 m/s
86%
22:00
18°
1018.1 hPa 34.2 mm
98%
14.8°
3
Windvlaag: 4.1 m/s
81%
23:00
18°
1018.4 hPa 20.3 mm
88%
14.8°
2
Windvlaag: 4.2 m/s
77%
 06:31     20:28    Daglengte: 13:57 Zaterdag 20 Aug
00:00
18°
1018.5 hPa 34.1 mm
35%
14.5°
2
Windvlaag: 4.3 m/s
71%
01:00
18°
1018.6 hPa 33.7 mm
22%
14.3°
2
Windvlaag: 4 m/s
69%
02:00
17°
1018.4 hPa 34.2 mm
24%
14.0°
2
Windvlaag: 3.6 m/s
57%
03:00
17°
1018.1 hPa 34.1 mm
30%
13.8°
2
Windvlaag: 3.6 m/s
58%
04:00
17°
1018.0 hPa 34.4 mm
24%
13.8°
2
Windvlaag: 3.5 m/s
56%
05:00
17°
1017.9 hPa 34.1 mm
22%
13.5°
2
Windvlaag: 4.1 m/s
52%
06:00
17°
1017.9 hPa 33.8 mm
23%
13.3°
1
Windvlaag: 3.9 m/s
48%
07:00
17°
1018.2 hPa 33.5 mm
30%
12.7°
1
Windvlaag: 2.9 m/s
83%
08:00
18°
1018.5 hPa
77%
12.8°
1
Windvlaag: 1.7 m/s
72%
09:00
19°
1018.7 hPa
54%
13.5°
1
Windvlaag: 2.1 m/s
78%
10:00
19°
1018.8 hPa
88%
14.9°
1
Windvlaag: 2 m/s
67%
11:00
20°
1018.8 hPa
43%
16.2°
1
Windvlaag: 2 m/s
38%
12:00
20°
1019.1 hPa
74%
17.5°
1
Windvlaag: 4 m/s
19%
13:00
22°
1018.8 hPa
81%
17.6°
1
Windvlaag: 3.9 m/s
61%
14:00
22°
1018.4 hPa 33.5 mm
82%
17.3°
1
Windvlaag: 3.5 m/s
18%
15:00
23°
1017.8 hPa
88%
17.3°
1
Windvlaag: 3 m/s
65%
16:00
22°
1018.0 hPa 33.9 mm
98%
15.3°
3
Windvlaag: 3.4 m/s
58%
17:00
21°
1018.1 hPa 34.8 mm
100%
13.7°
2
Windvlaag: 3.6 m/s
70% warningclass
18:00
20°
1018.5 hPa 36.4 mm
100%
13.0°
2
Windvlaag: 4.1 m/s
91% warningclass
19:00
20°
1018.8 hPa 34.9 mm
100%
14.0°
2
Windvlaag: 3.7 m/s
64%
20:00
19°
1019.0 hPa 34.6 mm
99%
15.9°
1
Windvlaag: 4 m/s
60% warningclass
21:00
17°
1017.2 hPa 100.5 mm
100%
14.0°
3
Windvlaag: 4.7 m/s
67%
22:00
16°
1017.6 hPa 100.5 mm
100%
13.6°
2
Windvlaag: 2.2 m/s
84%
23:00
15°
1016.8 hPa 100.5 mm
100%
13.4°
2
Windvlaag: 2.6 m/s
77%
Temp/Neerslag /Baro Onweer/Dauwpunt
    Temp Baro Neerslag Dauwpunt Wind Bewolking  
 06:28     20:32    Daglengte: 14:04 Morgen
02:00
19°
1012.5 hPa   14.9°
2
31%
05:00
18°
1011.6 hPa   14.7°
1
61%
08:00
18°
1011.8 hPa   17.1°
1
86%
11:00
19°
1012.3 hPa   18.3°
1
86%
14:00
21°
1011.8 hPa   19.4°
2
84%
17:00
21°
1011.2 hPa 5.5 mm 18.9°
2
74%
20:00
20°
1011.7 hPa 18.4 mm 18.0°
1
86% warningclass
23:00
19°
1012.5 hPa 13.0 mm 17.5°
1
86%
 06:30     20:30    Daglengte: 14:00 Vrijdag 19 Aug
02:00
18°
1012.8 hPa 20.3 mm 17.8°
1
86%
05:00
18°
1012.6 hPa 21.0 mm 17.6°
1
86% warningclass
08:00
18°
1013.6 hPa 23.8 mm 17.0°
2
86% warningclass
11:00
18°
1014.8 hPa 35.7 mm 17.2°
2
86% warningclass
14:00
19°
1015.2 hPa 53.4 mm 17.2°
2
86%
17:00
19°
1015.7 hPa 60.4 mm 18.4°
2
100% warningclass
20:00
19°
1016.7 hPa 63.0 mm 17.0°
2
85%
23:00
18°
1018.4 hPa 75.3 mm 14.8°
2
77%
 06:31     20:28    Daglengte: 13:57 Zaterdag 20 Aug
02:00
17°
1018.4 hPa 102.1 mm 14.0°
2
57%
05:00
17°
1017.9 hPa 102.6 mm 13.5°
2
52%
08:00
18°
1018.5 hPa 67.2 mm 12.8°
1
72%
11:00
20°
1018.8 hPa   16.2°
1
38%
14:00
22°
1018.4 hPa 33.5 mm 17.3°
1
18%
17:00
21°
1018.1 hPa 68.7 mm 13.7°
2
70% warningclass
20:00
19°
1019.0 hPa 105.9 mm 15.9°
1
60% warningclass
23:00
15°
1016.8 hPa 301.4 mm 13.4°
2
77%
 06:32     20:26    Daglengte: 13:54 Zondag 21 Aug
02:00
14°
1016.8 hPa 301.4 mm 11.6°
2
63%
05:00
14°
1017.5 hPa 103.7 mm 13.7°
1
1%
08:00
16°
1017.6 hPa 103.7 mm 14.9°
0
1%
11:00
19°
1016.6 hPa 104.0 mm 15.9°
1
1%
14:00
20°
1015.7 hPa 105.9 mm 16.8°
2
1%
17:00
20°
1015.5 hPa 109.5 mm 17.2°
1
1%
20:00
17°
1016.2 hPa 111.1 mm 14.7°
2
1%
23:00
15°
1017.4 hPa 112.0 mm 14.3°
2
1%
 06:34     20:24    Daglengte: 13:50 Maandag 22 Aug
02:00
15°
1016.5 hPa 112.1 mm 13.5°
1
1%
05:00
14°
1016.6 hPa 112.1 mm 13.1°
1
1%
08:00
15°
1017.2 hPa 112.1 mm 14.1°
0
1%
11:00
20°
1016.6 hPa 112.1 mm 14.1°
1
0%
14:00
23°
1015.6 hPa 112.2 mm 11.9°
3
0%
17:00
23°
1015.1 hPa 112.2 mm 13.2°
1
1%
20:00
19°
1016.0 hPa 112.3 mm 13.6°
1
1%
23:00
15°
1017.3 hPa 112.3 mm 12.7°
2
1%
 06:35     20:23    Daglengte: 13:48 Dinsdag 23 Aug
02:00
13°
1017.5 hPa 112.3 mm 12.2°
1
0%
05:00
12°
1018.2 hPa 112.3 mm 11.2°
1
0%
08:00
14°
1018.7 hPa 112.3 mm 12.0°
1
0%
11:00
21°
1017.6 hPa 112.3 mm 12.5°
2
0%
14:00
25°
1016.5 hPa 112.3 mm 10.4°
3
0%
17:00
25°
1015.8 hPa 112.3 mm 10.9°
3
0%
20:00
18°
1016.6 hPa 112.3 mm 12.9°
2
0%
23:00
15°
1017.9 hPa 112.3 mm 11.7°
2
0%
 06:36     20:21    Daglengte: 13:45 Woensdag 24 Aug
02:00
13°
1017.8 hPa 112.3 mm 11.6°
1
0%
05:00
12°
1017.7 hPa 112.3 mm 11.0°
1
0%
08:00
14°
1018.0 hPa 112.3 mm 11.9°
0
0%
11:00
20°
1017.4 hPa 112.3 mm 12.7°
2
1%
14:00
24°
1016.3 hPa 112.3 mm 12.5°
2
1%
17:00
25°
1015.7 hPa 112.3 mm 12.1°
2
1%
20:00
19°
1016.4 hPa 112.3 mm 14.0°
1
0%
23:00
16°
1017.8 hPa   13.4°
2
0%
 06:38     20:19    Daglengte: 13:41 Donderdag 25 Aug
02:00
15°
1017.7 hPa 224.6 mm 13.2°
1
0%
08:00
16°
1018.3 hPa 224.6 mm 14.1°
0
0%
14:00
26°
1016.3 hPa 224.6 mm 14.7°
2
0%
20:00
21°
1016.1 hPa 224.7 mm 15.4°
0
0%
 06:39     20:17    Daglengte: 13:38 Vrijdag 26 Aug
02:00
17°
1017.2 hPa 224.8 mm 14.3°
1
0%
08:00
18°
1016.8 hPa 224.8 mm 15.0°
1
1%
14:00
28°
1014.4 hPa 224.9 mm 15.7°
2
1%
20:00
22°
1013.7 hPa 225.9 mm 16.8°
1
0%
 06:40     20:15    Daglengte: 13:35 Zaterdag 27 Aug
02:00
18°
1015.3 hPa 226.5 mm 15.5°
2
1%
08:00
18°
1016.5 hPa 228.7 mm 16.6°
1
1%
14:00
28°
1015.6 hPa 229.0 mm 17.2°
1
1%
20:00
21°
1018.5 hPa 1.8 mm 15.3°
1
54%
 06:41     20:13    Daglengte: 13:32 Zondag 28 Aug
02:00
18°
1019.7 hPa 0.6 mm 14.1°
1
58%
08:00
18°
1020.0 hPa 0.6 mm 15.0°
1
59%
14:00
25°
1018.8 hPa 0.8 mm 16.1°
2
53%
20:00
21°
1019.4 hPa 2.0 mm 15.6°
0
57%
 06:43     20:11    Daglengte: 13:28 Maandag 29 Aug
02:00
18°
1020.5 hPa 1.0 mm 14.1°
1
60%
08:00
18°
1020.5 hPa 1.2 mm 14.5°
1
51%
14:00
25°
1019.2 hPa 1.3 mm 15.7°
2
50%
20:00
20°
1019.2 hPa 2.0 mm 14.9°
1
62%
 06:44     20:09    Daglengte: 13:25 Dinsdag 30 Aug
02:00
17°
1020.3 hPa 0.7 mm 13.1°
1
59%
08:00
17°
1020.1 hPa 0.5 mm 13.8°
1
51%
14:00
24°
1018.4 hPa 0.9 mm 14.7°
2
50%
20:00
19°
1018.4 hPa 2.2 mm 14.4°
0
59%
 06:45     20:07    Daglengte: 13:22 Woensdag 31 Aug
02:00
16°
1019.4 hPa 0.9 mm 12.9°
1
48%
08:00
17°
1019.0 hPa 0.4 mm 13.4°
1
48%
14:00
24°
1017.2 hPa 0.6 mm 14.2°
2
46%
20:00
19°
1017.5 hPa 2.0 mm 14.1°
0
54%
 06:47     20:05    Daglengte: 13:18 Donderdag 01 Sep
02:00
16°
1018.9 hPa 1.1 mm 12.3°
1
50%
08:00
16°
1019.0 hPa 0.9 mm 12.6°
1
49%
14:00
23°
1017.4 hPa 0.8 mm 13.2°
2
43%
20:00
18°
1018.0 hPa 1.3 mm 13.1°
0
49%
  CAPE Lifted Index Hail Supercell Tornado SRH 3km CL BTM PRES CL TOP PRES Swiss DWD icon SMHI TS
 06:28     20:32    Daglengte: 14:04 Morgen
00:00 1 J/kg -0.4 K 0 % 0 % 0 % 0 m²/s² 0 0 0.14 3
01:00 5 J/kg -1.5 K 0 % 0 % 0 % 0 m²/s² 0 0 -1.38 3
02:00 5 J/kg -1.0 K 0 % 0 % 0 % 0 m²/s² 0 0 -0.46 3
03:00 5 J/kg -0.8 K 0 % 0 % 0 % 0 m²/s² 0 0 -0.68 3
04:00 1 J/kg 0.2 K 0 % 0 % 0 % 0 m²/s² 0 0 0.47 3
05:00 0 J/kg 0.0 K 0 % 0 % 0 % 0 m²/s² 0 0 0.03 3
06:00 0 J/kg -0.5 K 0 % 0 % 0 % 0 m²/s² 0 0 -0.02 3
07:00 3 J/kg 0.3 K 0 % 0 % 0 % 0 m²/s² 0 0 2.19 3
08:00 7 J/kg 0.3 K 0 % 0 % 0 % 0 m²/s² 0 0 1.71 3
09:00 15 J/kg 0.2 K 0 % 0 % 0 % 0 m²/s² 0 0 1.16 3
10:00 6 J/kg 0.0 K 0 % 0 % 0 % 0 m²/s² 0 0 1.44 80
11:00 105 J/kg -0.3 K 0 % 0 % 0 % 0 m²/s² 0 0 0.18 3
12:00 193 J/kg -1.0 K 0 % 0 % 0 % 0 m²/s² 0 0 0.23 3
13:00 291 J/kg -1.3 K 0 % 0 % 0 % 0 m²/s² 0 0 0.5 3
14:00 267 J/kg -0.6 K 0 % 0 % 0 % 0 m²/s² 0 0 0.36 3
15:00 387 J/kg -2.4 K 0 % 0 % 0 % 0 m²/s² 0 0 -1.59 80
16:00 337 J/kg -1.9 K 0 % 0 % 0 % 0 m²/s² 0 0 -1.87 80
17:00 362 J/kg -1.7 K 0 % 0 % 0 % 0 m²/s² 0 0 -1.61 80
18:00 351 J/kg -1.6 K 0 % 0 % 0 % 0 m²/s² 0 0 -0.52 80
19:00 413 J/kg -1.9 K 0 % 0 % 0 % 0 m²/s² 0 0 -1.78 95
20:00 329 J/kg -1.4 K 0 % 0 % 0 % 0 m²/s² 0 0 -1.4 95
21:00 281 J/kg -1.5 K 0 % 0 % 0 % 0 m²/s² 0 0 -1.47 95
22:00 297 J/kg -1.3 K 0 % 0 % 0 % 0 m²/s² 0 0 -1.27 95
23:00 369 J/kg -1.6 K 0 % 0 % 0 % 0 m²/s² 0 0 -1.6 80
 06:30     20:30    Daglengte: 14:00 Vrijdag 19 Aug
00:00 362 J/kg -1.5 K 0 % 0 % 0 % 0 m²/s² 0 0 -1.05 80
01:00 323 J/kg -1.4 K 0 % 0 % 0 % 0 m²/s² 0 0 -0.29 80
02:00 237 J/kg -1.1 K 0 % 0 % 0 % 0 m²/s² 0 0 0.76 80
03:00 107 J/kg -1.4 K 0 % 0 % 0 % 0 m²/s² 0 0 0.46 80
04:00 87 J/kg -1.4 K 0 % 0 % 0 % 0 m²/s² 0 0 -0.38 80
05:00 34 J/kg -1.4 K 0 % 0 % 0 % 0 m²/s² 0 0 -0.29 95
06:00 0 J/kg -0.9 K 0 % 0 % 0 % 0 m²/s² 0 0 0.06 95
07:00 0 J/kg -1.3 K 0 % 0 % 0 % 0 m²/s² 0 0 -1.3 80
08:00 0 J/kg -1.2 K 0 % 0 % 0 % 0 m²/s² 0 0 -1.02 95
09:00 0 J/kg 0.4 K 0 % 0 % 0 % 0 m²/s² 0 0 0.4 95
10:00 1 J/kg 0.8 K 0 % 0 % 0 % 0 m²/s² 0 0 0.8 95
11:00 10 J/kg 0.1 K 0 % 0 % 0 % 0 m²/s² 0 0 0.1 95
12:00 47 J/kg -0.6 K 0 % 0 % 0 % 0 m²/s² 0 0 -0.6 80
13:00 140 J/kg -1.4 K 0 % 0 % 0 % 0 m²/s² 0 0 -1.4 63
14:00 288 J/kg -1.7 K 0 % 0 % 0 % 0 m²/s² 0 0 -1.7 80
15:00 478 J/kg -2.0 K 0 % 0 % 0 % 0 m²/s² 0 0 -2 61
16:00 512 J/kg -1.8 K 0 % 0 % 0 % 0 m²/s² 0 0 -1.8 80
17:00 521 J/kg -2.2 K 0 % 0 % 0 % 0 m²/s² 0 0 -2.17 80
18:00 286 J/kg -2.2 K 0 % 0 % 0 % 0 m²/s² 0 0 -2.08 80
19:00 434 J/kg -2.2 K 0 % 0 % 0 % 0 m²/s² 0 0 -1.57 80
20:00 562 J/kg -2.2 K 0 % 0 % 0 % 0 m²/s² 0 0 -1.54 80
21:00 217 J/kg -0.5 K 0 % 0 % 0 % 0 m²/s² 0 0 0.4 80
22:00 76 J/kg 0.9 K 0 % 0 % 0 % 0 m²/s² 0 0 2.22 80
23:00 37 J/kg 1.5 K 0 % 0 % 0 % 0 m²/s² 0 0 2.97 2
 06:31     20:28    Daglengte: 13:57 Zaterdag 20 Aug
00:00 0 J/kg 1.9 K 0 % 0 % 0 % 0 m²/s² 0 0 3.16 2
01:00 0 J/kg 1.9 K 0 % 0 % 0 % 0 m²/s² 0 0 3.55 2
02:00 0 J/kg 2.1 K 0 % 0 % 0 % 0 m²/s² 0 0 3.69 2
03:00 0 J/kg 1.8 K 0 % 0 % 0 % 0 m²/s² 0 0 3.27 1
04:00 0 J/kg 2.3 K 0 % 0 % 0 % 0 m²/s² 0 0 3.77 1
05:00 0 J/kg 1.8 K 0 % 0 % 0 % 0 m²/s² 0 0 3.24 2
06:00 0 J/kg 1.4 K 0 % 0 % 0 % 0 m²/s² 0 0 2.93 2
07:00 0 J/kg 1.2 K 0 % 0 % 0 % 0 m²/s² 0 0 2.79 3
08:00 0 J/kg 1.1 K 0 % 0 % 0 % 0 m²/s² 0 0 2.3 3
09:00 0 J/kg 1.3 K 0 % 0 % 0 % 0 m²/s² 0 0 2.35 3
10:00 69 J/kg 0.4 K 0 % 0 % 0 % 0 m²/s² 0 0 1.36 3
11:00 209 J/kg -0.5 K 0 % 0 % 0 % 0 m²/s² 0 0 0.16 3
12:00 141 J/kg -0.5 K 0 % 0 % 0 % 0 m²/s² 0 0 -0.14 2
13:00 455 J/kg -1.5 K 0 % 0 % 0 % 0 m²/s² 0 0 -1.02 3
14:00 641 J/kg -2.0 K 0 % 0 % 0 % 0 m²/s² 0 0 -1.28 2
15:00 804 J/kg -2.6 K 0 % 0 % 0 % 0 m²/s² 0 0 -1.88 3
16:00 797 J/kg -2.7 K 0 % 0 % 0 % 0 m²/s² 0 0 -1.32 80
17:00 725 J/kg -2.5 K 0 % 0 % 0 % 0 m²/s² 0 0 0.02 95
18:00 707 J/kg -2.4 K 0 % 0 % 0 % 0 m²/s² 0 0 1.2 95
19:00 821 J/kg -2.8 K 0 % 0 % 0 % 0 m²/s² 0 0 0.02 81
20:00 849 J/kg -2.9 K 0 % 0 % 0 % 0 m²/s² 0 0 0.16 95
21:00 595 J/kg -2.1 K 0 % 0 % 0 % 0 m²/s² 0 0 1.5
22:00 439 J/kg -1.6 K 0 % 0 % 0 % 0 m²/s² 0 0 2.21
23:00 220 J/kg -0.8 K 0 % 0 % 0 % 0 m²/s² 0 0 4.12
Temp Baro Wind Neerslag
  EWN Forecast EWN WRFDA DWD ICON FMI HIRLAM MET Norway GFS
 06:28     20:32    Daglengte: 14:04 Morgen
02:00 19.5° 1012.5 hPa 1.5 m/s 0.0 mm 16.4° 1013.4 hPa 2.2 m/s 38.1 mm 19.8° 1012.9 hPa 0.9 m/s -1.9 mm 20.9° 1012.3 hPa 2.1 m/s 0.0 mm 17.3° 1014.7 hPa 0.9 m/s
05:00 18.4° 1011.6 hPa 0.8 m/s 0.0 mm 16.4° 1011.4 hPa 1.9 m/s 65.6 mm 18.0° 1012.3 hPa 0.7 m/s 0.0 mm 19.9° 1011.1 hPa 1.1 m/s 0.0 mm 16.6° 1013.8 hPa 0.6 m/s
08:00 18.1° 1011.8 hPa 1.3 m/s 0.0 mm 16.6° 1010.4 hPa 2.1 m/s 70.8 mm 18.3° 1012.5 hPa 1.5 m/s 0.0 mm 17.9° 1011.9 hPa 1.2 m/s 0.0 mm 16.9° 1014.4 hPa 0.4 m/s
11:00 19.3° 1012.3 hPa 1.3 m/s 0.0 mm 18.9° 1012.4 hPa 1.8 m/s 73.0 mm 19.3° 1012.5 hPa 0.7 m/s 0.4 mm 18.4° 1012.3 hPa 1.3 m/s 0.0 mm 20.2° 1013.5 hPa 1.9 m/s
14:00 21.1° 1011.8 hPa 2.3 m/s 0.0 mm 22.1° 1009.3 hPa 2.5 m/s 73.1 mm 21.4° 1011.5 hPa 2.3 m/s 0.0 mm 18.8° 1012.5 hPa 1.3 m/s 0.0 mm 21.9° 1012.3 hPa 1.7 m/s
17:00 21.3° 1011.2 hPa 1.6 m/s 5.5 mm 20.6° 1009.5 hPa 4.0 m/s 75.5 mm 19.6° 1011.7 hPa 1.0 m/s 2.2 mm 21.4° 1010.5 hPa 2.2 m/s 0.0 mm 20.1° 1012.4 hPa 1.5 m/s
20:00 20.3° 1011.7 hPa 1.2 m/s 18.4 mm 19.4° 1008.5 hPa 1.0 m/s 80.1 mm 18.9° 1012.2 hPa 0.8 m/s 3.2 mm 21.2° 1011.1 hPa 1.2 m/s 0.0 mm 18.3° 1012.6 hPa 1.0 m/s
23:00 18.7° 1012.5 hPa 1.2 m/s 13.0 mm 18.1° 1009.6 hPa 2.1 m/s 87.4 mm 18.5° 1012.8 hPa 1.2 m/s 3.7 mm 20.5° 1011.8 hPa 1.2 m/s 0.0 mm 17.5° 1012.8 hPa 0.6 m/s
 06:30     20:30    Daglengte: 14:00 Vrijdag 19 Aug
02:00 18.1° 1012.8 hPa 1.1 m/s 20.3 mm 17.9° 1009.5 hPa 3.0 m/s 95.6 mm 18.1° 1013.4 hPa 1.4 m/s 1.9 mm 19.1° 1011.5 hPa 0.9 m/s 0.0 mm 16.4° 1013.2 hPa 1.3 m/s
05:00 17.9° 1012.6 hPa 1.3 m/s 21.0 mm 16.9° 1009.3 hPa 4.0 m/s 98.8 mm 17.9° 1013.0 hPa 1.6 m/s 2.4 mm 18.9° 1011.7 hPa 0.9 m/s 0.0 mm 16.5° 1012.7 hPa 1.0 m/s
08:00 17.8° 1013.6 hPa 1.9 m/s 23.8 mm 16.4° 1009.7 hPa 5.6 m/s 106.8 mm 17.8° 1014.2 hPa 1.5 m/s 2.9 mm 18.7° 1012.7 hPa 1.7 m/s 0.0 mm 16.1° 1013.4 hPa 1.4 m/s
11:00 18.1° 1014.8 hPa 2.2 m/s 35.7 mm 16.4° 1011.5 hPa 5.7 m/s 166.0 mm 18.2° 1015.3 hPa 1.7 m/s 4.1 mm 19.2° 1014.0 hPa 1.9 m/s 0.0 mm 16.5° 1015.6 hPa 1.5 m/s
14:00 18.7° 1015.2 hPa 2.0 m/s 53.4 mm 17.6° 1012.7 hPa 2.5 m/s 249.4 mm 18.5° 1017.0 hPa 2.3 m/s 5.2 mm 20.3° 1014.6 hPa 2.0 m/s 0.0 mm 17.1° 1016.6 hPa 1.4 m/s
17:00 19.1° 1015.7 hPa 2.3 m/s 60.4 mm 18.8° 1014.5 hPa 2.1 m/s 291.6 mm 18.9° 1017.6 hPa 2.2 m/s 2.2 mm 17.4° 1017.2 hPa 2.1 m/s
20:00 18.8° 1016.7 hPa 2.1 m/s 63.0 mm 19.1° 1014.6 hPa 2.1 m/s 300.1 mm 18.0° 1018.7 hPa 1.8 m/s 1.2 mm 17.0° 1017.5 hPa 1.8 m/s
23:00 18.0° 1018.4 hPa 2.4 m/s 75.3 mm 18.4° 1016.3 hPa 2.7 m/s 300.6 mm 18.0° 1019.2 hPa 1.4 m/s 2.4 mm 16.2° 1018.8 hPa 1.9 m/s
 06:31     20:28    Daglengte: 13:57 Zaterdag 20 Aug
02:00 17.2° 1018.4 hPa 1.8 m/s 102.1 mm 15.8° 1016.2 hPa 2.9 m/s 300.6 mm 17.8° 1019.3 hPa 0.9 m/s 0.0 mm 15.6° 1018.5 hPa 1.9 m/s
05:00 17.0° 1017.9 hPa 1.9 m/s 102.6 mm 14.1° 1016.2 hPa 3.0 m/s 300.6 mm 17.3° 1018.8 hPa 0.9 m/s 0.0 mm 15.3° 1018.1 hPa 1.4 m/s
08:00 17.6° 1018.5 hPa 0.8 m/s 67.2 mm 17.9° 1017.1 hPa 1.9 m/s 300.6 mm 16.7° 1019.6 hPa 0.7 m/s 0.0 mm 16.9° 1018.1 hPa 1.0 m/s
11:00 19.7° 1018.8 hPa 1.4 m/s 0.0 mm 19.2° 1018.4 hPa 4.4 m/s 300.6 mm 19.6° 1019.7 hPa 0.2 m/s 0.0 mm 21.8° 1017.5 hPa 1.5 m/s
14:00 22.5° 1018.4 hPa 0.9 m/s 33.5 mm 21.4° 1017.7 hPa 2.3 m/s 300.9 mm 22.8° 1018.6 hPa 0.5 m/s 0.2 mm 21.9° 1018.2 hPa 2.6 m/s
17:00 20.9° 1018.1 hPa 1.7 m/s 68.7 mm 22.6° 1016.9 hPa 2.0 m/s 301.4 mm 20.5° 1018.4 hPa 1.6 m/s 2.5 mm 22.1° 1017.4 hPa 0.8 m/s
20:00 18.7° 1019.0 hPa 1.1 m/s 105.9 mm 18.9° 1016.9 hPa 2.1 m/s 301.4 mm 18.6° 1019.5 hPa 0.9 m/s 8.2 mm 18.5° 1018.0 hPa 0.5 m/s
23:00 15.2° 1016.8 hPa 2.4 m/s 301.4 mm 15.2° 1016.8 hPa 2.4 m/s 301.4 mm 15.1° 1019.7 hPa 1.6 m/s
 06:32     20:26    Daglengte: 13:54 Zondag 21 Aug
02:00 13.9° 1016.8 hPa 2.2 m/s 301.4 mm 13.9° 1016.8 hPa 2.2 m/s 301.4 mm 14.5° 1019.0 hPa 1.0 m/s
05:00 14.2° 1017.5 hPa 1.1 m/s 103.7 mm 14.2° 1017.5 hPa 1.1 m/s 103.7 mm
08:00 15.6° 1017.6 hPa 0.4 m/s 103.7 mm 15.6° 1017.6 hPa 0.4 m/s 103.7 mm
11:00 19.4° 1016.6 hPa 1.4 m/s 104.0 mm 19.4° 1016.6 hPa 1.4 m/s 104.0 mm
14:00 20.4° 1015.7 hPa 1.5 m/s 105.9 mm 20.4° 1015.7 hPa 1.5 m/s 105.9 mm
17:00 20.0° 1015.5 hPa 0.7 m/s 109.5 mm 20.0° 1015.5 hPa 0.7 m/s 109.5 mm
20:00 16.8° 1016.2 hPa 1.5 m/s 111.1 mm 16.8° 1016.2 hPa 1.5 m/s 111.1 mm
23:00 15.5° 1017.4 hPa 1.5 m/s 112.0 mm 15.5° 1017.4 hPa 1.5 m/s 112.0 mm
 06:34     20:24    Daglengte: 13:50 Maandag 22 Aug
02:00 14.5° 1016.5 hPa 0.7 m/s 112.1 mm 14.5° 1016.5 hPa 0.7 m/s 112.1 mm
05:00 13.9° 1016.6 hPa 1.0 m/s 112.1 mm 13.9° 1016.6 hPa 1.0 m/s 112.1 mm
08:00 15.1° 1017.2 hPa 0.2 m/s 112.1 mm 15.1° 1017.2 hPa 0.2 m/s 112.1 mm
11:00 20.3° 1016.6 hPa 1.4 m/s 112.1 mm 20.3° 1016.6 hPa 1.4 m/s 112.1 mm
14:00 23.1° 1015.6 hPa 2.9 m/s 112.2 mm 23.1° 1015.6 hPa 2.9 m/s 112.2 mm
17:00 22.7° 1015.1 hPa 1.1 m/s 112.2 mm 22.7° 1015.1 hPa 1.1 m/s 112.2 mm
20:00 18.9° 1016.0 hPa 0.8 m/s 112.3 mm 18.9° 1016.0 hPa 0.8 m/s 112.3 mm
23:00 15.2° 1017.3 hPa 1.8 m/s 112.3 mm 15.2° 1017.3 hPa 1.8 m/s 112.3 mm
 06:35     20:23    Daglengte: 13:48 Dinsdag 23 Aug
02:00 13.5° 1017.5 hPa 1.3 m/s 112.3 mm 13.5° 1017.5 hPa 1.3 m/s 112.3 mm
05:00 12.3° 1018.2 hPa 1.2 m/s 112.3 mm 12.3° 1018.2 hPa 1.2 m/s 112.3 mm
08:00 14.3° 1018.7 hPa 0.7 m/s 112.3 mm 14.3° 1018.7 hPa 0.7 m/s 112.3 mm
11:00 20.7° 1017.6 hPa 1.9 m/s 112.3 mm 20.7° 1017.6 hPa 1.9 m/s 112.3 mm
14:00 24.6° 1016.5 hPa 3.5 m/s 112.3 mm 24.6° 1016.5 hPa 3.5 m/s 112.3 mm
17:00 24.7° 1015.8 hPa 3.4 m/s 112.3 mm 24.7° 1015.8 hPa 3.4 m/s 112.3 mm
20:00 18.4° 1016.6 hPa 1.7 m/s 112.3 mm 18.4° 1016.6 hPa 1.7 m/s 112.3 mm
23:00 14.7° 1017.9 hPa 1.6 m/s 112.3 mm 14.7° 1017.9 hPa 1.6 m/s 112.3 mm
 06:36     20:21    Daglengte: 13:45 Woensdag 24 Aug
02:00 13.4° 1017.8 hPa 0.9 m/s 112.3 mm 13.4° 1017.8 hPa 0.9 m/s 112.3 mm
05:00 12.4° 1017.7 hPa 0.8 m/s 112.3 mm 12.4° 1017.7 hPa 0.8 m/s 112.3 mm
08:00 14.3° 1018.0 hPa 0.4 m/s 112.3 mm 14.3° 1018.0 hPa 0.4 m/s 112.3 mm
11:00 20.4° 1017.4 hPa 1.7 m/s 112.3 mm 20.4° 1017.4 hPa 1.7 m/s 112.3 mm
14:00 24.2° 1016.3 hPa 2.1 m/s 112.3 mm 24.2° 1016.3 hPa 2.1 m/s 112.3 mm
17:00 25.3° 1015.7 hPa 1.9 m/s 112.3 mm 25.3° 1015.7 hPa 1.9 m/s 112.3 mm
20:00 19.1° 1016.4 hPa 1.0 m/s 112.3 mm 19.1° 1016.4 hPa 1.0 m/s 112.3 mm
23:00 15.9° 1017.8 hPa 1.5 m/s 112.3 mm 15.9° 1017.8 hPa 1.5 m/s 112.3 mm
 06:38     20:19    Daglengte: 13:41 Donderdag 25 Aug
02:00 14.8° 1017.7 hPa 1.0 m/s 112.3 mm 14.8° 1017.7 hPa 1.0 m/s 112.3 mm
08:00 16.1° 1018.3 hPa 0.3 m/s 112.3 mm 16.1° 1018.3 hPa 0.3 m/s 112.3 mm
14:00 26.3° 1016.3 hPa 1.8 m/s 112.3 mm 26.3° 1016.3 hPa 1.8 m/s 112.3 mm
20:00 20.7° 1016.1 hPa 0.3 m/s 112.4 mm 20.7° 1016.1 hPa 0.3 m/s 112.4 mm
 06:39     20:17    Daglengte: 13:38 Vrijdag 26 Aug
02:00 17.0° 1017.2 hPa 1.2 m/s 112.4 mm 17.0° 1017.2 hPa 1.2 m/s 112.4 mm
08:00 17.9° 1016.8 hPa 0.7 m/s 112.4 mm 17.9° 1016.8 hPa 0.7 m/s 112.4 mm
14:00 28.4° 1014.4 hPa 1.5 m/s 112.5 mm 28.4° 1014.4 hPa 1.5 m/s 112.5 mm
20:00 22.4° 1013.7 hPa 0.8 m/s 113.1 mm 22.4° 1013.7 hPa 0.8 m/s 113.1 mm
 06:40     20:15    Daglengte: 13:35 Zaterdag 27 Aug
02:00 18.4° 1015.3 hPa 2.1 m/s 113.2 mm 18.4° 1015.3 hPa 2.1 m/s 113.2 mm
08:00 18.1° 1016.5 hPa 1.1 m/s 114.5 mm 18.1° 1016.5 hPa 1.1 m/s 114.5 mm
14:00 27.9° 1015.6 hPa 1.2 m/s 114.5 mm 27.9° 1015.6 hPa 1.2 m/s 114.5 mm
20:00 20.9° 1018.5 hPa 0.8 m/s 1.8 mm